This is the latest recevied weather packets stored in our database for station/object KC4JY. If no packets are shown the sender has not sent any weather packets the latest 10 day(s).
| Time | Temp. | Humidity | Pressure | Rain* | Wind** | Luminosity | Snow |
|---|---|---|---|---|---|---|---|
| 1777643141 | 12.78° C | 63% | 1015.2 hPa | 0 mm | - | - | - |
| 1777642217 | 12.22° C | 65% | 1015.2 hPa | 0 mm | - | - | - |
| 1777641317 | 12.22° C | 64% | 1015.4 hPa | 0 mm | - | - | - |
| 1777640460 | 12.22° C | 64% | 1015.1 hPa | 0 mm | - | - | - |
| 1777639558 | 12.22° C | 63% | 1015.3 hPa | 0 mm | - | - | - |
| 1777638640 | 12.22° C | 64% | 1015 hPa | 0 mm | - | - | - |
| 1777637736 | 11.67° C | 68% | 1015.2 hPa | 0 mm | - | - | - |
| 1777636817 | 11.67° C | 68% | 1015.4 hPa | 0 mm | - | - | - |
| 1777635914 | 11.11° C | 68% | 1015.5 hPa | 0 mm | - | - | - |
| 1777635067 | 11.11° C | 67% | 1015.2 hPa | 0 mm | - | - | - |
| 1777634158 | 11.67° C | 67% | 1014.9 hPa | 0 mm | - | - | - |
| 1777633231 | 11.67° C | 66% | 1014.7 hPa | 0 mm | - | - | - |
| 1777632334 | 11.67° C | 65% | 1014.5 hPa | 0 mm | - | - | - |
| 1777631410 | 11.67° C | 65% | 1014.4 hPa | 0 mm | - | - | - |
| 1777630509 | 12.22° C | 65% | 1014.5 hPa | 0 mm | - | - | - |
| 1777629649 | 12.22° C | 64% | 1014.3 hPa | 0 mm | - | - | - |
| 1777628752 | 12.22° C | 65% | 1014.2 hPa | 0 mm | - | - | - |
| 1777627888 | 12.22° C | 64% | 1014.1 hPa | 0 mm | - | - | - |
| 1777626931 | 12.22° C | 65% | 1014 hPa | 0 mm | - | - | - |
| 1777626007 | 12.78° C | 65% | 1014 hPa | 0 mm | - | - | - |
| 1777625105 | 12.78° C | 66% | 1013.9 hPa | 0 mm | - | - | - |
| 1777624247 | 12.78° C | 67% | 1013.7 hPa | 0 mm | - | - | - |
| 1777623347 | 12.78° C | 67% | 1013.6 hPa | 0 mm | - | - | - |
| 1777622425 | 12.78° C | 67% | 1013.3 hPa | 0 mm | - | - | - |
| 1777621524 | 12.78° C | 66% | 1013 hPa | 0 mm | - | - | - |
* Rain latest hour (hover to see other rain measurements)
** Current wind speed in m/s (hover to see current wind gust speed)